Time,TemperatureF,DewpointF,PressureIn,WindDirection,WindDirectionDegrees,WindSpeedMPH,WindSpeedGustMPH,Humidity,HourlyPrecipIn,Conditions,Clouds,dailyrainin,SoftwareType,DateUTC
2013-09-25 00:01:00,67.7,64.0,29.93,North,355,1.0,1.0,88,0.00,,,0.00,Wunderground v.1.13,2013-09-25 04:01:00,
2013-09-25 00:03:00,67.7,64.0,29.93,North,355,0.0,1.0,88,0.00,,,0.00,Wunderground v.1.13,2013-09-25 04:03:00,
2013-09-25 00:04:00,67.7,64.0,29.93,North,355,0.0,1.0,88,0.00,,,0.00,Wunderground v.1.13,2013-09-25 04:04:00,
2013-09-25 00:06:00,67.7,64.0,29.92,North,355,0.0,0.0,88,0.00,,,0.00,Wunderground v.1.13,2013-09-25 04:06:00,
2013-09-25 00:11:00,67.7,64.0,29.92,North,355,0.0,0.0,88,0.00,,,0.00,Wunderground v.1.13,2013-09-25 04:11:00,
2013-09-25 00:17:00,67.6,64.2,29.92,North,355,0.0,0.0,89,0.00,,,0.00,Wunderground v.1.13,2013-09-25 04:17:00,
2013-09-25 00:22:00,67.6,64.2,29.92,North,355,0.0,0.0,89,0.00,,,0.00,Wunderground v.1.13,2013-09-25 04:22:00,
2013-09-25 00:28:00,67.4,64.0,29.93,North,355,0.0,0.0,89,0.00,,,0.00,Wunderground v.1.13,2013-09-25 04:28:00,
2013-09-25 00:33:00,67.3,63.9,29.92,North,355,0.0,0.0,89,0.00,,,0.00,Wunderground v.1.13,2013-09-25 04:33:00,
2013-09-25 00:38:00,67.2,63.8,29.92,North,355,0.0,0.0,89,0.00,,,0.00,Wunderground v.1.13,2013-09-25 04:38:00,
2013-09-25 00:44:00,67.1,63.7,29.92,North,355,0.0,0.0,89,0.00,,,0.00,Wunderground v.1.13,2013-09-25 04:44:00,
2013-09-25 00:50:00,67.0,64.0,29.92,North,355,0.0,0.0,90,0.00,,,0.00,Wunderground v.1.13,2013-09-25 04:50:00,
2013-09-25 00:56:00,66.9,63.9,29.92,North,355,0.0,0.0,90,0.00,,,0.00,Wunderground v.1.13,2013-09-25 04:56:00,
2013-09-25 01:01:00,66.8,63.8,29.92,North,355,0.0,0.0,90,0.00,,,0.00,Wunderground v.1.13,2013-09-25 05:01:00,
2013-09-25 01:06:00,66.7,63.7,29.91,North,355,0.0,0.0,90,0.00,,,0.00,Wunderground v.1.13,2013-09-25 05:06:00,
2013-09-25 01:11:00,66.6,63.6,29.91,North,355,0.0,0.0,90,0.00,,,0.00,Wunderground v.1.13,2013-09-25 05:11:00,
2013-09-25 01:18:00,66.5,63.5,29.91,North,355,0.0,0.0,90,0.00,,,0.00,Wunderground v.1.13,2013-09-25 05:18:00,
2013-09-25 01:24:00,66.2,63.2,29.91,North,355,0.0,0.0,90,0.00,,,0.00,Wunderground v.1.13,2013-09-25 05:24:00,
2013-09-25 01:29:00,66.0,63.0,29.91,North,355,0.0,0.0,90,0.00,,,0.00,Wunderground v.1.13,2013-09-25 05:29:00,
2013-09-25 01:35:00,65.8,62.8,29.91,North,355,0.0,0.0,90,0.00,,,0.00,Wunderground v.1.13,2013-09-25 05:35:00,
2013-09-25 01:41:00,65.6,62.6,29.91,North,355,0.0,0.0,90,0.00,,,0.00,Wunderground v.1.13,2013-09-25 05:41:00,
2013-09-25 01:46:00,65.4,62.4,29.90,North,355,0.0,0.0,90,0.00,,,0.00,Wunderground v.1.13,2013-09-25 05:46:00,
2013-09-25 01:52:00,65.2,62.5,29.90,North,355,0.0,0.0,91,0.00,,,0.00,Wunderground v.1.13,2013-09-25 05:52:00,
2013-09-25 01:57:00,65.1,62.4,29.89,North,355,0.0,0.0,91,0.00,,,0.00,Wunderground v.1.13,2013-09-25 05:57:00,
2013-09-25 02:02:00,65.0,62.3,29.90,North,355,0.0,0.0,91,0.00,,,0.00,Wunderground v.1.13,2013-09-25 06:02:00,
2013-09-25 02:08:00,64.9,62.5,29.90,North,355,0.0,0.0,92,0.00,,,0.00,Wunderground v.1.13,2013-09-25 06:08:00,
2013-09-25 02:13:00,64.7,62.3,29.91,North,355,0.0,0.0,92,0.00,,,0.00,Wunderground v.1.13,2013-09-25 06:13:00,
2013-09-25 02:19:00,64.5,62.1,29.90,North,355,0.0,0.0,92,0.00,,,0.00,Wunderground v.1.13,2013-09-25 06:19:00,
2013-09-25 02:24:00,64.4,62.0,29.90,North,355,0.0,0.0,92,0.00,,,0.00,Wunderground v.1.13,2013-09-25 06:24:00,
2013-09-25 02:30:00,64.3,61.9,29.90,North,355,0.0,0.0,92,0.00,,,0.00,Wunderground v.1.13,2013-09-25 06:30:00,
2013-09-25 02:35:00,64.0,61.6,29.90,North,355,0.0,0.0,92,0.00,,,0.00,Wunderground v.1.13,2013-09-25 06:35:00,
2013-09-25 02:41:00,63.9,61.5,29.90,North,355,0.0,0.0,92,0.00,,,0.00,Wunderground v.1.13,2013-09-25 06:41:00,
2013-09-25 02:46:00,63.7,61.3,29.90,North,355,0.0,0.0,92,0.00,,,0.00,Wunderground v.1.13,2013-09-25 06:46:00,
2013-09-25 02:52:00,63.5,61.1,29.90,North,355,0.0,0.0,92,0.00,,,0.00,Wunderground v.1.13,2013-09-25 06:52:00,
2013-09-25 02:57:00,63.4,61.0,29.90,North,355,0.0,0.0,92,0.00,,,0.00,Wunderground v.1.13,2013-09-25 06:57:00,
2013-09-25 03:02:00,63.3,61.2,29.90,North,355,0.0,0.0,93,0.00,,,0.00,Wunderground v.1.13,2013-09-25 07:02:00,
2013-09-25 03:07:00,63.2,61.1,29.89,North,355,0.0,0.0,93,0.00,,,0.00,Wunderground v.1.13,2013-09-25 07:07:00,
2013-09-25 03:13:00,63.2,61.1,29.89,North,355,0.0,0.0,93,0.00,,,0.00,Wunderground v.1.13,2013-09-25 07:13:00,
2013-09-25 03:18:00,63.1,61.0,29.89,North,355,0.0,0.0,93,0.00,,,0.00,Wunderground v.1.13,2013-09-25 07:18:00,
2013-09-25 03:24:00,63.0,60.9,29.90,North,355,0.0,0.0,93,0.00,,,0.00,Wunderground v.1.13,2013-09-25 07:24:00,
2013-09-25 03:30:00,62.9,60.8,29.90,North,355,0.0,0.0,93,0.00,,,0.00,Wunderground v.1.13,2013-09-25 07:30:00,
2013-09-25 03:35:00,62.9,60.8,29.90,North,355,0.0,0.0,93,0.00,,,0.00,Wunderground v.1.13,2013-09-25 07:35:00,
2013-09-25 03:41:00,62.9,61.1,29.89,North,355,0.0,0.0,94,0.00,,,0.00,Wunderground v.1.13,2013-09-25 07:41:00,
2013-09-25 03:46:00,62.9,61.1,29.89,North,355,0.0,0.0,94,0.00,,,0.00,Wunderground v.1.13,2013-09-25 07:46:00,
2013-09-25 03:54:00,63.0,61.2,29.88,North,355,0.0,0.0,94,0.00,,,0.00,Wunderground v.1.13,2013-09-25 07:54:00,
2013-09-25 03:59:00,63.0,61.2,29.88,North,355,0.0,0.0,94,0.00,,,0.00,Wunderground v.1.13,2013-09-25 07:59:00,
2013-09-25 04:04:00,63.0,61.2,29.87,North,355,0.0,1.0,94,0.00,,,0.00,Wunderground v.1.13,2013-09-25 08:04:00,
2013-09-25 04:10:00,63.1,61.6,29.88,North,355,0.0,0.0,95,0.00,,,0.00,Wunderground v.1.13,2013-09-25 08:10:00,
2013-09-25 04:16:00,63.1,61.6,29.88,North,355,0.0,0.0,95,0.00,,,0.00,Wunderground v.1.13,2013-09-25 08:16:00,
2013-09-25 04:21:00,63.1,61.6,29.88,North,355,0.0,0.0,95,0.00,,,0.00,Wunderground v.1.13,2013-09-25 08:21:00,
2013-09-25 04:26:00,63.1,61.6,29.89,North,355,0.0,0.0,95,0.00,,,0.00,Wunderground v.1.13,2013-09-25 08:26:00,
2013-09-25 04:31:00,63.1,61.6,29.89,North,355,0.0,0.0,95,0.00,,,0.00,Wunderground v.1.13,2013-09-25 08:31:00,
2013-09-25 04:37:00,63.1,61.6,29.88,North,355,0.0,0.0,95,0.00,,,0.00,Wunderground v.1.13,2013-09-25 08:37:00,
2013-09-25 04:43:00,63.1,61.6,29.88,North,355,0.0,0.0,95,0.00,,,0.00,Wunderground v.1.13,2013-09-25 08:43:00,
2013-09-25 04:49:00,63.3,62.1,29.88,North,355,0.0,0.0,96,0.00,,,0.00,Wunderground v.1.13,2013-09-25 08:49:00,
2013-09-25 04:55:00,63.3,62.1,29.88,North,355,0.0,0.0,96,0.00,,,0.00,Wunderground v.1.13,2013-09-25 08:55:00,
2013-09-25 05:01:00,63.4,62.2,29.88,North,355,0.0,0.0,96,0.00,,,0.00,Wunderground v.1.13,2013-09-25 09:01:00,
2013-09-25 05:06:00,63.4,62.2,29.88,North,355,0.0,0.0,96,0.00,,,0.00,Wunderground v.1.13,2013-09-25 09:06:00,
2013-09-25 05:11:00,63.4,62.2,29.87,North,355,0.0,0.0,96,0.00,,,0.00,Wunderground v.1.13,2013-09-25 09:11:00,
2013-09-25 05:17:00,63.3,62.1,29.88,North,355,0.0,0.0,96,0.00,,,0.00,Wunderground v.1.13,2013-09-25 09:17:00,
2013-09-25 05:22:00,63.3,62.1,29.88,North,355,0.0,0.0,96,0.00,,,0.00,Wunderground v.1.13,2013-09-25 09:22:00,
2013-09-25 05:27:00,63.3,62.1,29.88,North,355,0.0,0.0,96,0.00,,,0.00,Wunderground v.1.13,2013-09-25 09:27:00,
2013-09-25 05:33:00,63.3,62.1,29.88,North,355,0.0,0.0,96,0.00,,,0.00,Wunderground v.1.13,2013-09-25 09:33:00,
2013-09-25 05:38:00,63.3,62.1,29.89,North,355,0.0,0.0,96,0.00,,,0.00,Wunderground v.1.13,2013-09-25 09:38:00,
2013-09-25 05:44:00,63.3,62.1,29.89,North,355,0.0,0.0,96,0.00,,,0.00,Wunderground v.1.13,2013-09-25 09:44:00,
2013-09-25 05:50:00,63.2,62.0,29.89,North,355,0.0,0.0,96,0.00,,,0.00,Wunderground v.1.13,2013-09-25 09:50:00,
2013-09-25 05:56:00,63.2,62.0,29.89,North,355,0.0,0.0,96,0.00,,,0.00,Wunderground v.1.13,2013-09-25 09:56:00,
2013-09-25 06:01:00,63.2,62.0,29.89,North,355,0.0,0.0,96,0.00,,,0.00,Wunderground v.1.13,2013-09-25 10:01:00,
2013-09-25 06:08:00,63.4,62.5,29.88,North,355,0.0,0.0,97,0.00,,,0.01,Wunderground v.1.13,2013-09-25 10:08:00,
2013-09-25 06:13:00,63.5,62.3,29.88,North,355,0.0,0.0,96,0.00,,,0.01,Wunderground v.1.13,2013-09-25 10:13:00,
2013-09-25 06:19:00,63.5,62.3,29.88,North,355,0.0,0.0,96,0.00,,,0.01,Wunderground v.1.13,2013-09-25 10:19:00,
2013-09-25 06:25:00,63.6,62.7,29.88,North,355,0.0,0.0,97,0.00,,,0.01,Wunderground v.1.13,2013-09-25 10:25:00,
2013-09-25 06:31:00,63.6,62.7,29.88,North,355,0.0,0.0,97,0.00,,,0.02,Wunderground v.1.13,2013-09-25 10:31:00,
2013-09-25 06:36:00,63.6,62.7,29.89,North,355,0.0,0.0,97,0.00,,,0.02,Wunderground v.1.13,2013-09-25 10:36:00,
2013-09-25 06:42:00,63.6,62.7,29.88,North,355,0.0,0.0,97,0.06,,,0.03,Wunderground v.1.13,2013-09-25 10:42:00,
2013-09-25 06:47:00,63.6,62.7,29.88,North,355,0.0,0.0,97,0.06,,,0.03,Wunderground v.1.13,2013-09-25 10:47:00,
2013-09-25 06:53:00,63.6,62.7,29.88,North,355,0.0,0.0,97,0.04,,,0.03,Wunderground v.1.13,2013-09-25 10:53:00,
2013-09-25 06:58:00,63.6,62.7,29.88,North,355,0.0,0.0,97,0.00,,,0.03,Wunderground v.1.13,2013-09-25 10:58:00,
2013-09-25 07:04:00,63.6,62.7,29.88,North,355,0.0,0.0,97,0.00,,,0.03,Wunderground v.1.13,2013-09-25 11:04:00,
2013-09-25 07:10:00,63.6,62.7,29.88,North,355,0.0,0.0,97,0.00,,,0.03,Wunderground v.1.13,2013-09-25 11:10:00,
2013-09-25 07:15:00,63.5,62.6,29.89,North,355,0.0,0.0,97,0.00,,,0.03,Wunderground v.1.13,2013-09-25 11:15:00,
2013-09-25 07:21:00,63.5,62.6,29.89,North,355,0.0,0.0,97,0.00,,,0.03,Wunderground v.1.13,2013-09-25 11:21:00,
2013-09-25 07:26:00,63.6,62.7,29.89,North,355,0.0,0.0,97,0.00,,,0.03,Wunderground v.1.13,2013-09-25 11:26:00,
2013-09-25 07:32:00,63.7,62.8,29.89,North,355,0.0,0.0,97,0.00,,,0.04,Wunderground v.1.13,2013-09-25 11:32:00,
2013-09-25 07:38:00,63.8,62.9,29.90,North,355,0.0,0.0,97,0.00,,,0.04,Wunderground v.1.13,2013-09-25 11:38:00,
2013-09-25 07:43:00,63.8,62.9,29.90,North,355,0.0,0.0,97,0.00,,,0.04,Wunderground v.1.13,2013-09-25 11:43:00,
2013-09-25 07:49:00,63.8,62.9,29.90,North,355,0.0,0.0,97,0.00,,,0.04,Wunderground v.1.13,2013-09-25 11:49:00,
2013-09-25 07:55:00,63.9,63.0,29.90,North,355,0.0,0.0,97,0.00,,,0.04,Wunderground v.1.13,2013-09-25 11:55:00,
2013-09-25 08:00:00,63.9,63.0,29.89,North,355,0.0,0.0,97,0.00,,,0.04,Wunderground v.1.13,2013-09-25 12:00:00,
2013-09-25 08:06:00,64.0,63.1,29.89,North,355,0.0,0.0,97,0.00,,,0.05,Wunderground v.1.13,2013-09-25 12:06:00,
2013-09-25 08:11:00,64.0,63.1,29.90,North,355,0.0,0.0,97,0.00,,,0.05,Wunderground v.1.13,2013-09-25 12:11:00,
2013-09-25 08:17:00,64.1,63.2,29.90,North,355,0.0,0.0,97,0.07,,,0.06,Wunderground v.1.13,2013-09-25 12:17:00,
2013-09-25 08:22:00,64.0,63.1,29.90,North,5,1.0,3.0,97,0.10,,,0.07,Wunderground v.1.13,2013-09-25 12:22:00,
2013-09-25 08:28:00,63.9,63.0,29.90,North,10,1.0,1.0,97,0.06,,,0.07,Wunderground v.1.13,2013-09-25 12:28:00,
2013-09-25 08:33:00,63.8,62.9,29.90,NNE,26,0.0,3.0,97,0.04,,,0.07,Wunderground v.1.13,2013-09-25 12:33:00,
2013-09-25 08:39:00,63.7,62.8,29.90,NE,35,1.0,1.0,97,0.00,,,0.07,Wunderground v.1.13,2013-09-25 12:39:00,
2013-09-25 08:44:00,63.6,62.7,29.90,NE,38,0.0,1.0,97,0.00,,,0.07,Wunderground v.1.13,2013-09-25 12:44:00,
2013-09-25 08:50:00,63.5,62.6,29.90,NE,38,0.0,0.0,97,0.00,,,0.08,Wunderground v.1.13,2013-09-25 12:50:00,
2013-09-25 08:56:00,63.5,62.6,29.90,NE,38,0.0,0.0,97,0.09,,,0.09,Wunderground v.1.13,2013-09-25 12:56:00,
2013-09-25 09:01:00,63.5,62.6,29.90,NE,38,0.0,0.0,97,0.09,,,0.09,Wunderground v.1.13,2013-09-25 13:01:00,
2013-09-25 09:07:00,63.6,62.7,29.90,NE,38,0.0,0.0,97,0.06,,,0.10,Wunderground v.1.13,2013-09-25 13:07:00,
2013-09-25 09:13:00,63.6,62.7,29.90,NE,38,0.0,0.0,97,0.06,,,0.10,Wunderground v.1.13,2013-09-25 13:13:00,
2013-09-25 09:18:00,63.7,62.8,29.90,NE,38,0.0,0.0,97,0.04,,,0.10,Wunderground v.1.13,2013-09-25 13:18:00,
2013-09-25 09:24:00,63.8,62.9,29.91,NE,38,0.0,0.0,97,0.04,,,0.11,Wunderground v.1.13,2013-09-25 13:24:00,
2013-09-25 09:29:00,63.9,63.0,29.91,NE,38,0.0,0.0,97,0.08,,,0.12,Wunderground v.1.13,2013-09-25 13:29:00,
2013-09-25 09:34:00,64.0,63.4,29.91,NE,38,0.0,0.0,98,0.08,,,0.12,Wunderground v.1.13,2013-09-25 13:34:00,
2013-09-25 09:40:00,64.0,63.4,29.91,NE,38,0.0,0.0,98,0.09,,,0.13,Wunderground v.1.13,2013-09-25 13:40:00,
2013-09-25 09:45:00,64.1,63.5,29.91,NE,38,0.0,0.0,98,0.06,,,0.13,Wunderground v.1.13,2013-09-25 13:45:00,
2013-09-25 09:51:00,64.3,63.7,29.92,NE,38,0.0,0.0,98,0.04,,,0.13,Wunderground v.1.13,2013-09-25 13:51:00,
2013-09-25 09:57:00,64.5,63.9,29.92,NE,38,0.0,0.0,98,0.00,,,0.13,Wunderground v.1.13,2013-09-25 13:57:00,
2013-09-25 10:02:00,64.6,64.0,29.92,NE,38,0.0,0.0,98,0.00,,,0.13,Wunderground v.1.13,2013-09-25 14:02:00,
2013-09-25 10:07:00,64.7,64.1,29.92,NE,38,0.0,0.0,98,0.00,,,0.13,Wunderground v.1.13,2013-09-25 14:07:00,
2013-09-25 10:13:00,64.8,64.2,29.92,NE,38,0.0,0.0,98,0.00,,,0.13,Wunderground v.1.13,2013-09-25 14:13:00,
2013-09-25 10:18:00,64.7,64.1,29.91,NE,38,0.0,1.0,98,0.00,,,0.14,Wunderground v.1.13,2013-09-25 14:18:00,
2013-09-25 10:24:00,64.9,64.3,29.91,NE,38,0.0,0.0,98,0.00,,,0.14,Wunderground v.1.13,2013-09-25 14:24:00,
2013-09-25 10:30:00,65.0,64.4,29.91,NE,38,0.0,0.0,98,0.00,,,0.14,Wunderground v.1.13,2013-09-25 14:30:00,
2013-09-25 10:35:00,65.2,64.6,29.91,NE,51,1.0,2.0,98,0.00,,,0.14,Wunderground v.1.13,2013-09-25 14:35:00,
2013-09-25 10:40:00,65.1,64.5,29.91,NE,51,2.0,2.0,98,0.00,,,0.14,Wunderground v.1.13,2013-09-25 14:40:00,
2013-09-25 10:47:00,65.2,64.3,29.91,NE,53,1.0,1.0,97,0.00,,,0.14,Wunderground v.1.13,2013-09-25 14:47:00,
2013-09-25 10:52:00,65.2,64.6,29.91,NE,53,1.0,1.0,98,0.00,,,0.14,Wunderground v.1.13,2013-09-25 14:52:00,
2013-09-25 10:57:00,65.2,64.6,29.91,NE,53,1.0,1.0,98,0.00,,,0.14,Wunderground v.1.13,2013-09-25 14:57:00,
2013-09-25 11:03:00,65.6,65.0,29.91,NE,53,0.0,1.0,98,0.00,,,0.14,Wunderground v.1.13,2013-09-25 15:03:00,
2013-09-25 11:09:00,65.8,65.2,29.91,NE,53,0.0,1.0,98,0.00,,,0.14,Wunderground v.1.13,2013-09-25 15:09:00,
2013-09-25 11:14:00,65.9,65.3,29.91,NE,54,1.0,2.0,98,0.00,,,0.14,Wunderground v.1.13,2013-09-25 15:14:00,
2013-09-25 11:20:00,66.1,65.2,29.91,NE,54,1.0,1.0,97,0.00,,,0.14,Wunderground v.1.13,2013-09-25 15:20:00,
2013-09-25 11:26:00,66.3,65.4,29.91,NE,54,0.0,0.0,97,0.00,,,0.14,Wunderground v.1.13,2013-09-25 15:26:00,
2013-09-25 11:32:00,66.1,65.2,29.91,NE,54,0.0,0.0,97,0.00,,,0.14,Wunderground v.1.13,2013-09-25 15:32:00,
2013-09-25 11:38:00,66.1,64.9,29.91,NE,54,0.0,0.0,96,0.00,,,0.14,Wunderground v.1.13,2013-09-25 15:38:00,
2013-09-25 11:43:00,66.1,64.9,29.91,NE,54,0.0,0.0,96,0.00,,,0.14,Wunderground v.1.13,2013-09-25 15:43:00,
2013-09-25 11:49:00,66.0,64.8,29.91,NE,54,0.0,0.0,96,0.00,,,0.14,Wunderground v.1.13,2013-09-25 15:49:00,
2013-09-25 11:55:00,66.0,64.8,29.91,NE,54,0.0,0.0,96,0.00,,,0.14,Wunderground v.1.13,2013-09-25 15:55:00,
2013-09-25 12:00:00,66.2,65.0,29.91,NE,54,0.0,0.0,96,0.18,,,0.16,Wunderground v.1.13,2013-09-25 16:00:00,
2013-09-25 12:06:00,66.3,65.1,29.91,NE,54,0.0,0.0,96,0.12,,,0.17,Wunderground v.1.13,2013-09-25 16:06:00,
2013-09-25 12:11:00,66.4,65.2,29.91,NE,54,0.0,0.0,96,0.09,,,0.17,Wunderground v.1.13,2013-09-25 16:11:00,
2013-09-25 12:17:00,66.6,65.4,29.91,NE,54,0.0,0.0,96,0.05,,,0.17,Wunderground v.1.13,2013-09-25 16:17:00,
2013-09-25 12:23:00,66.8,65.6,29.91,NE,54,0.0,0.0,96,0.00,,,0.17,Wunderground v.1.13,2013-09-25 16:23:00,
2013-09-25 12:28:00,66.8,65.6,29.91,NE,54,0.0,0.0,96,0.00,,,0.18,Wunderground v.1.13,2013-09-25 16:28:00,
2013-09-25 12:33:00,66.7,65.2,29.91,NE,54,0.0,0.0,95,0.00,,,0.18,Wunderground v.1.13,2013-09-25 16:33:00,
2013-09-25 12:39:00,66.6,65.1,29.91,NE,54,1.0,4.0,95,0.00,,,0.18,Wunderground v.1.13,2013-09-25 16:39:00,
2013-09-25 12:45:00,66.6,65.1,29.91,NE,54,1.0,1.0,95,0.00,,,0.18,Wunderground v.1.13,2013-09-25 16:45:00,
2013-09-25 12:50:00,66.8,65.3,29.91,NE,54,0.0,0.0,95,0.00,,,0.18,Wunderground v.1.13,2013-09-25 16:50:00,
2013-09-25 12:56:00,66.8,65.3,29.91,NE,54,0.0,0.0,95,0.00,,,0.19,Wunderground v.1.13,2013-09-25 16:56:00,
2013-09-25 13:02:00,66.9,65.4,29.91,NE,54,0.0,0.0,95,0.00,,,0.19,Wunderground v.1.13,2013-09-25 17:02:00,
2013-09-25 13:07:00,66.9,65.4,29.91,NE,54,0.0,0.0,95,0.05,,,0.20,Wunderground v.1.13,2013-09-25 17:07:00,
2013-09-25 13:13:00,66.9,65.4,29.90,NE,54,0.0,0.0,95,0.05,,,0.20,Wunderground v.1.13,2013-09-25 17:13:00,
2013-09-25 13:18:00,66.9,65.4,29.90,NE,54,0.0,0.0,95,0.05,,,0.20,Wunderground v.1.13,2013-09-25 17:18:00,
2013-09-25 13:24:00,66.9,65.4,29.90,NE,54,0.0,4.0,95,0.00,,,0.20,Wunderground v.1.13,2013-09-25 17:24:00,
2013-09-25 13:29:00,66.9,65.4,29.90,NE,54,0.0,0.0,95,0.00,,,0.20,Wunderground v.1.13,2013-09-25 17:29:00,
2013-09-25 13:34:00,67.0,65.5,29.90,NE,54,0.0,0.0,95,0.12,,,0.21,Wunderground v.1.13,2013-09-25 17:34:00,
2013-09-25 13:40:00,67.3,65.8,29.90,NE,54,0.0,0.0,95,0.11,,,0.23,Wunderground v.1.13,2013-09-25 17:40:00,
2013-09-25 13:45:00,67.5,66.0,29.89,NE,54,0.0,0.0,95,0.11,,,0.23,Wunderground v.1.13,2013-09-25 17:45:00,
2013-09-25 13:51:00,67.2,65.4,29.89,NE,53,2.0,5.0,94,0.05,,,0.24,Wunderground v.1.13,2013-09-25 17:51:00,
2013-09-25 13:56:00,67.2,65.4,29.89,NE,54,2.0,2.0,94,0.05,,,0.24,Wunderground v.1.13,2013-09-25 17:56:00,
2013-09-25 14:02:00,67.5,66.0,29.88,NE,55,0.0,1.0,95,0.05,,,0.24,Wunderground v.1.13,2013-09-25 18:02:00,
2013-09-25 14:07:00,67.5,65.7,29.88,NE,55,0.0,0.0,94,0.04,,,0.24,Wunderground v.1.13,2013-09-25 18:07:00,
2013-09-25 14:12:00,67.5,65.4,29.88,ENE,57,0.0,0.0,93,0.00,,,0.24,Wunderground v.1.13,2013-09-25 18:12:00,
2013-09-25 14:18:00,67.6,65.5,29.88,ENE,57,0.0,0.0,93,0.00,,,0.24,Wunderground v.1.13,2013-09-25 18:18:00,
2013-09-25 14:23:00,67.7,65.6,29.88,ENE,57,0.0,0.0,93,0.00,,,0.24,Wunderground v.1.13,2013-09-25 18:23:00,
2013-09-25 14:30:00,67.9,65.5,29.88,ENE,57,1.0,1.0,92,0.00,,,0.24,Wunderground v.1.13,2013-09-25 18:30:00,
2013-09-25 14:36:00,68.0,65.9,29.88,ENE,58,1.0,1.0,93,0.00,,,0.24,Wunderground v.1.13,2013-09-25 18:36:00,
2013-09-25 14:41:00,68.1,65.7,29.88,ENE,62,1.0,1.0,92,0.00,,,0.24,Wunderground v.1.13,2013-09-25 18:41:00,
2013-09-25 14:47:00,68.3,65.6,29.87,ENE,63,1.0,1.0,91,0.00,,,0.24,Wunderground v.1.13,2013-09-25 18:47:00,
2013-09-25 14:53:00,68.3,65.3,29.88,ENE,65,1.0,2.0,90,0.00,,,0.24,Wunderground v.1.13,2013-09-25 18:53:00,
2013-09-25 14:58:00,68.5,65.4,29.87,ENE,67,1.0,1.0,90,0.00,,,0.24,Wunderground v.1.13,2013-09-25 18:58:00,
2013-09-25 15:04:00,68.6,65.2,29.87,ENE,72,1.0,1.0,89,0.00,,,0.24,Wunderground v.1.13,2013-09-25 19:04:00,
2013-09-25 15:10:00,68.8,65.4,29.87,ENE,72,1.0,1.0,89,0.00,,,0.24,Wunderground v.1.13,2013-09-25 19:10:00,
2013-09-25 15:15:00,69.0,65.6,29.87,ENE,74,0.0,0.0,89,0.00,,,0.24,Wunderground v.1.13,2013-09-25 19:15:00,
2013-09-25 15:21:00,69.1,65.7,29.87,ENE,71,1.0,1.0,89,0.00,,,0.24,Wunderground v.1.13,2013-09-25 19:21:00,
2013-09-25 15:27:00,69.4,65.7,29.86,ENE,75,1.0,2.0,88,0.00,,,0.24,Wunderground v.1.13,2013-09-25 19:27:00,
2013-09-25 15:32:00,69.5,65.8,29.86,ENE,77,1.0,4.0,88,0.00,,,0.24,Wunderground v.1.13,2013-09-25 19:32:00,
2013-09-25 15:37:00,69.8,66.1,29.86,ENE,77,0.0,1.0,88,0.00,,,0.24,Wunderground v.1.13,2013-09-25 19:37:00,
2013-09-25 15:44:00,69.7,65.3,29.86,ENE,77,1.0,5.0,86,0.00,,,0.24,Wunderground v.1.13,2013-09-25 19:44:00,
2013-09-25 15:50:00,69.8,65.4,29.86,East,79,1.0,1.0,86,0.00,,,0.24,Wunderground v.1.13,2013-09-25 19:50:00,
2013-09-25 15:56:00,69.7,65.0,29.86,East,79,1.0,1.0,85,0.00,,,0.24,Wunderground v.1.13,2013-09-25 19:56:00,
2013-09-25 16:01:00,69.8,65.1,29.86,East,79,0.0,0.0,85,0.00,,,0.24,Wunderground v.1.13,2013-09-25 20:01:00,
2013-09-25 16:07:00,69.7,64.6,29.86,East,85,1.0,2.0,84,0.00,,,0.24,Wunderground v.1.13,2013-09-25 20:07:00,
2013-09-25 16:13:00,69.6,64.2,29.86,East,85,1.0,1.0,83,0.00,,,0.24,Wunderground v.1.13,2013-09-25 20:13:00,
2013-09-25 16:18:00,69.7,64.3,29.86,East,85,0.0,3.0,83,0.00,,,0.24,Wunderground v.1.13,2013-09-25 20:18:00,
2013-09-25 16:24:00,69.7,64.3,29.86,East,80,0.0,6.0,83,0.00,,,0.24,Wunderground v.1.13,2013-09-25 20:24:00,
2013-09-25 16:30:00,69.7,64.3,29.87,East,80,0.0,2.0,83,0.00,,,0.24,Wunderground v.1.13,2013-09-25 20:30:00,
2013-09-25 16:35:00,69.6,63.5,29.86,East,80,1.0,1.0,81,0.00,,,0.24,Wunderground v.1.13,2013-09-25 20:35:00,
2013-09-25 16:40:00,69.5,63.4,29.86,East,80,1.0,1.0,81,0.00,,,0.24,Wunderground v.1.13,2013-09-25 20:40:00,
2013-09-25 16:46:00,69.6,64.2,29.86,East,81,1.0,1.0,83,0.00,,,0.24,Wunderground v.1.13,2013-09-25 20:46:00,
2013-09-25 16:51:00,69.7,64.6,29.86,East,81,0.0,0.0,84,0.00,,,0.24,Wunderground v.1.13,2013-09-25 20:51:00,
2013-09-25 16:58:00,69.5,64.8,29.86,East,81,0.0,2.0,85,0.00,,,0.24,Wunderground v.1.13,2013-09-25 20:58:00,
2013-09-25 17:03:00,69.2,64.5,29.87,East,81,0.0,0.0,85,0.00,,,0.24,Wunderground v.1.13,2013-09-25 21:03:00,
2013-09-25 17:09:00,69.0,64.3,29.87,East,81,0.0,0.0,85,0.00,,,0.24,Wunderground v.1.13,2013-09-25 21:09:00,
2013-09-25 17:15:00,68.9,64.5,29.87,East,81,0.0,0.0,86,0.00,,,0.24,Wunderground v.1.13,2013-09-25 21:15:00,
2013-09-25 17:20:00,68.8,64.8,29.87,East,81,0.0,0.0,87,0.00,,,0.24,Wunderground v.1.13,2013-09-25 21:20:00,
2013-09-25 17:26:00,68.8,65.1,29.87,East,81,0.0,0.0,88,0.00,,,0.24,Wunderground v.1.13,2013-09-25 21:26:00,
2013-09-25 17:31:00,68.9,65.5,29.87,East,81,0.0,0.0,89,0.00,,,0.24,Wunderground v.1.13,2013-09-25 21:31:00,
2013-09-25 17:37:00,68.7,65.3,29.87,East,81,0.0,0.0,89,0.00,,,0.24,Wunderground v.1.13,2013-09-25 21:37:00,
2013-09-25 17:43:00,68.5,64.8,29.87,East,81,0.0,2.0,88,0.00,,,0.25,Wunderground v.1.13,2013-09-25 21:43:00,
2013-09-25 17:49:00,68.5,64.8,29.88,East,81,0.0,1.0,88,0.00,,,0.25,Wunderground v.1.13,2013-09-25 21:49:00,
2013-09-25 17:56:00,68.5,65.1,29.88,East,81,0.0,1.0,89,0.00,,,0.25,Wunderground v.1.13,2013-09-25 21:56:00,
2013-09-25 18:02:00,68.5,65.4,29.87,East,81,0.0,1.0,90,0.00,,,0.25,Wunderground v.1.13,2013-09-25 22:02:00,
2013-09-25 18:10:00,68.3,65.3,29.87,East,81,0.0,0.0,90,0.00,,,0.25,Wunderground v.1.13,2013-09-25 22:10:00,
2013-09-25 18:15:00,68.3,65.6,29.87,East,81,0.0,0.0,91,0.00,,,0.25,Wunderground v.1.13,2013-09-25 22:15:00,
2013-09-25 18:21:00,68.3,65.6,29.87,East,98,0.0,0.0,91,0.00,,,0.25,Wunderground v.1.13,2013-09-25 22:21:00,
2013-09-25 18:26:00,68.4,65.7,29.88,East,97,0.0,0.0,91,0.00,,,0.25,Wunderground v.1.13,2013-09-25 22:26:00,
2013-09-25 18:31:00,68.4,65.7,29.88,East,97,0.0,0.0,91,0.00,,,0.25,Wunderground v.1.13,2013-09-25 22:31:00,
2013-09-25 18:37:00,68.4,65.7,29.88,East,97,0.0,0.0,91,0.00,,,0.25,Wunderground v.1.13,2013-09-25 22:37:00,
2013-09-25 18:43:00,68.2,65.2,29.88,East,96,1.0,3.0,90,0.00,,,0.25,Wunderground v.1.13,2013-09-25 22:43:00,
2013-09-25 18:49:00,68.0,64.6,29.88,East,96,0.0,1.0,89,0.00,,,0.25,Wunderground v.1.13,2013-09-25 22:49:00,
2013-09-25 18:54:00,67.9,64.5,29.88,East,96,0.0,0.0,89,0.00,,,0.25,Wunderground v.1.13,2013-09-25 22:54:00,
2013-09-25 19:00:00,67.9,64.5,29.88,East,96,0.0,0.0,89,0.00,,,0.25,Wunderground v.1.13,2013-09-25 23:00:00,
2013-09-25 19:05:00,67.8,64.4,29.88,East,96,0.0,0.0,89,0.00,,,0.25,Wunderground v.1.13,2013-09-25 23:05:00,
2013-09-25 19:11:00,67.8,64.4,29.88,East,96,0.0,0.0,89,0.00,,,0.25,Wunderground v.1.13,2013-09-25 23:11:00,
2013-09-25 19:17:00,67.8,64.4,29.88,East,96,0.0,0.0,89,0.00,,,0.25,Wunderground v.1.13,2013-09-25 23:17:00,
2013-09-25 19:22:00,67.7,64.7,29.88,East,96,0.0,0.0,90,0.00,,,0.25,Wunderground v.1.13,2013-09-25 23:22:00,
2013-09-25 19:28:00,67.6,64.6,29.88,East,96,0.0,0.0,90,0.00,,,0.25,Wunderground v.1.13,2013-09-25 23:28:00,
2013-09-25 19:33:00,67.6,64.6,29.88,East,96,0.0,0.0,90,0.00,,,0.25,Wunderground v.1.13,2013-09-25 23:33:00,
2013-09-25 19:38:00,67.5,64.8,29.89,East,96,0.0,0.0,91,0.00,,,0.25,Wunderground v.1.13,2013-09-25 23:38:00,
2013-09-25 19:44:00,67.4,64.7,29.89,East,96,0.0,0.0,91,0.00,,,0.25,Wunderground v.1.13,2013-09-25 23:44:00,
2013-09-25 19:50:00,67.2,64.5,29.88,East,96,0.0,0.0,91,0.00,,,0.25,Wunderground v.1.13,2013-09-25 23:50:00,
2013-09-25 19:55:00,67.1,64.4,29.88,East,96,0.0,0.0,91,0.00,,,0.25,Wunderground v.1.13,2013-09-25 23:55:00,
2013-09-25 20:01:00,67.0,64.6,29.88,East,96,0.0,0.0,92,0.00,,,0.25,Wunderground v.1.13,2013-09-26 00:01:00,
2013-09-25 20:08:00,66.9,64.5,29.88,East,96,0.0,0.0,92,0.00,,,0.25,Wunderground v.1.13,2013-09-26 00:08:00,
2013-09-25 20:13:00,66.8,64.4,29.89,East,96,0.0,0.0,92,0.00,,,0.25,Wunderground v.1.13,2013-09-26 00:13:00,
2013-09-25 20:18:00,66.7,64.3,29.89,East,96,0.0,0.0,92,0.00,,,0.25,Wunderground v.1.13,2013-09-26 00:18:00,
2013-09-25 20:24:00,66.5,64.1,29.89,East,96,0.0,0.0,92,0.00,,,0.25,Wunderground v.1.13,2013-09-26 00:24:00,
2013-09-25 20:31:00,66.2,63.8,29.89,East,96,0.0,0.0,92,0.00,,,0.25,Wunderground v.1.13,2013-09-26 00:31:00,
2013-09-25 20:37:00,66.1,64.0,29.89,East,96,0.0,0.0,93,0.00,,,0.25,Wunderground v.1.13,2013-09-26 00:37:00,
2013-09-25 20:42:00,66.0,63.9,29.89,East,96,0.0,0.0,93,0.00,,,0.25,Wunderground v.1.13,2013-09-26 00:42:00,
2013-09-25 20:47:00,65.9,63.8,29.89,East,96,0.0,0.0,93,0.00,,,0.25,Wunderground v.1.13,2013-09-26 00:47:00,
2013-09-25 20:53:00,65.8,63.7,29.90,East,96,0.0,0.0,93,0.00,,,0.25,Wunderground v.1.13,2013-09-26 00:53:00,
2013-09-25 21:01:00,65.7,63.6,29.90,East,96,0.0,0.0,93,0.00,,,0.25,Wunderground v.1.13,2013-09-26 01:01:00,
2013-09-25 21:08:00,65.5,63.4,29.90,East,96,0.0,0.0,93,0.00,,,0.25,Wunderground v.1.13,2013-09-26 01:08:00,
2013-09-25 21:13:00,65.5,63.4,29.90,East,96,0.0,0.0,93,0.00,,,0.25,Wunderground v.1.13,2013-09-26 01:13:00,
2013-09-25 21:18:00,65.4,63.3,29.90,East,96,0.0,0.0,93,0.00,,,0.25,Wunderground v.1.13,2013-09-26 01:18:00,
2013-09-25 21:25:00,65.3,63.2,29.90,East,96,0.0,0.0,93,0.00,,,0.25,Wunderground v.1.13,2013-09-26 01:25:00,
2013-09-25 21:31:00,65.2,63.4,29.91,East,96,0.0,0.0,94,0.00,,,0.25,Wunderground v.1.13,2013-09-26 01:31:00,
2013-09-25 21:37:00,65.2,63.1,29.91,East,96,0.0,0.0,93,0.00,,,0.25,Wunderground v.1.13,2013-09-26 01:37:00,
2013-09-25 21:42:00,65.2,63.4,29.91,East,96,0.0,0.0,94,0.00,,,0.25,Wunderground v.1.13,2013-09-26 01:42:00,
2013-09-25 21:47:00,65.3,63.5,29.91,East,96,0.0,0.0,94,0.00,,,0.25,Wunderground v.1.13,2013-09-26 01:47:00,
2013-09-25 21:52:00,65.2,63.4,29.91,East,96,0.0,0.0,94,0.00,,,0.25,Wunderground v.1.13,2013-09-26 01:52:00,
2013-09-25 21:58:00,65.2,63.4,29.91,East,96,0.0,0.0,94,0.00,,,0.25,Wunderground v.1.13,2013-09-26 01:58:00,
2013-09-25 22:04:00,65.2,63.4,29.91,East,96,0.0,0.0,94,0.00,,,0.25,Wunderground v.1.13,2013-09-26 02:04:00,
2013-09-25 22:09:00,65.2,63.4,29.91,East,96,0.0,0.0,94,0.00,,,0.25,Wunderground v.1.13,2013-09-26 02:09:00,
2013-09-25 22:15:00,65.1,63.3,29.91,East,96,0.0,0.0,94,0.00,,,0.25,Wunderground v.1.13,2013-09-26 02:15:00,
2013-09-25 22:21:00,65.1,63.3,29.91,East,96,0.0,0.0,94,0.00,,,0.25,Wunderground v.1.13,2013-09-26 02:21:00,
2013-09-25 22:27:00,65.0,63.2,29.91,East,96,0.0,0.0,94,0.00,,,0.25,Wunderground v.1.13,2013-09-26 02:27:00,
2013-09-25 22:32:00,65.0,63.2,29.91,East,96,0.0,0.0,94,0.00,,,0.25,Wunderground v.1.13,2013-09-26 02:32:00,
2013-09-25 22:38:00,65.0,63.5,29.91,East,96,0.0,0.0,95,0.00,,,0.25,Wunderground v.1.13,2013-09-26 02:38:00,
2013-09-25 22:43:00,65.0,63.5,29.91,East,96,0.0,0.0,95,0.00,,,0.25,Wunderground v.1.13,2013-09-26 02:43:00,
2013-09-25 22:49:00,65.0,63.5,29.91,East,96,0.0,0.0,95,0.00,,,0.25,Wunderground v.1.13,2013-09-26 02:49:00,
2013-09-25 22:54:00,65.0,63.5,29.91,East,96,0.0,0.0,95,0.00,,,0.25,Wunderground v.1.13,2013-09-26 02:54:00,
2013-09-25 23:01:00,65.0,63.5,29.91,East,96,0.0,0.0,95,0.00,,,0.25,Wunderground v.1.13,2013-09-26 03:01:00,
2013-09-25 23:07:00,65.0,63.5,29.91,East,96,0.0,0.0,95,0.00,,,0.25,Wunderground v.1.13,2013-09-26 03:07:00,
2013-09-25 23:13:00,65.0,63.5,29.91,East,96,0.0,0.0,95,0.00,,,0.25,Wunderground v.1.13,2013-09-26 03:13:00,
2013-09-25 23:19:00,65.0,63.5,29.92,East,96,0.0,0.0,95,0.00,,,0.25,Wunderground v.1.13,2013-09-26 03:19:00,
2013-09-25 23:24:00,65.0,63.5,29.91,East,96,0.0,0.0,95,0.00,,,0.25,Wunderground v.1.13,2013-09-26 03:24:00,
2013-09-25 23:30:00,65.0,63.5,29.92,East,96,0.0,0.0,95,0.00,,,0.25,Wunderground v.1.13,2013-09-26 03:30:00,
2013-09-25 23:36:00,64.9,63.4,29.92,East,96,0.0,0.0,95,0.00,,,0.25,Wunderground v.1.13,2013-09-26 03:36:00,
2013-09-25 23:42:00,64.9,63.4,29.92,East,96,0.0,0.0,95,0.00,,,0.25,Wunderground v.1.13,2013-09-26 03:42:00,
2013-09-25 23:48:00,64.8,63.3,29.92,East,96,0.0,0.0,95,0.00,,,0.25,Wunderground v.1.13,2013-09-26 03:48:00,
2013-09-25 23:54:00,64.8,63.3,29.92,East,96,0.0,0.0,95,0.00,,,0.25,Wunderground v.1.13,2013-09-26 03:54:00,
2013-09-25 23:59:00,64.8,63.3,29.92,East,96,0.0,0.0,95,0.00,,,0.25,Wunderground v.1.13,2013-09-26 03:59:00,